owner,sensor,date,latitude,longitude,vertical_datum,wind_speed,wind_to_direction,wind_speed_of_gust,qcFlag 
DISL,ioos:station:DISL:MBLA:1,2008-05-01T00:00:00Z,30.4367,-88.0117,14.2,6.03,94.1,-9999.0,'1111122,1111122,1111122' 
DISL,ioos:station:DISL:MBLA:1,2008-05-01T00:30:00Z,30.4367,-88.0117,14.2,6.07,98.6,-9999.0,'1111122,1111122,1111122' 
DISL,ioos:station:DISL:MBLA:1,2008-05-01T01:00:00Z,30.4367,-88.0117,14.2,7.08,92.3,-9999.0,'1111122,1111122,1111122' 
DISL,ioos:station:DISL:MBLA:1,2008-05-01T01:30:00Z,30.4367,-88.0117,14.2,7.6,86.3,-9999.0,'1111122,1111122,1111122' 
DISL,ioos:station:DISL:MBLA:1,2008-05-01T02:00:00Z,30.4367,-88.0117,14.2,8.31,88.3,-9999.0,'1111122,1111122,1111122' 
DISL,ioos:station:DISL:MBLA:1,2008-05-01T02:30:00Z,30.4367,-88.0117,14.2,8.36,96.0,-9999.0,'1111122,1111122,1111122' 
DISL,ioos:station:DISL:MBLA:1,2008-05-01T03:00:00Z,30.4367,-88.0117,14.2,8.29,101.5,-9999.0,'1111122,1111122,1111122' 
DISL,ioos:station:DISL:MBLA:1,2008-05-01T03:30:00Z,30.4367,-88.0117,14.2,8.87,107.6,-9999.0,'1111122,1111122,1111122' 
DISL,ioos:station:DISL:MBLA:1,2008-05-01T04:00:00Z,30.4367,-88.0117,14.2,9.29,105.0,-9999.0,'1111122,1111122,1111122' 
DISL,ioos:station:DISL:MBLA:1,2008-05-01T04:30:00Z,30.4367,-88.0117,14.2,9.53,107.0,-9999.0,'1111122,1111122,1111122' 
DISL,ioos:station:DISL:MBLA:1,2008-05-01T05:00:00Z,30.4367,-88.0117,14.2,9.3,106.9,-9999.0,'1111122,1111122,1111122' 
DISL,ioos:station:DISL:MBLA:1,2008-05-01T05:30:00Z,30.4367,-88.0117,14.2,9.54,106.9,-9999.0,'1111122,1111122,1111122' 
DISL,ioos:station:DISL:MBLA:1,2008-05-01T06:00:00Z,30.4367,-88.0117,14.2,9.33,108.2,-9999.0,'1111122,1111122,1111122' 
DISL,ioos:station:DISL:MBLA:1,2008-05-01T06:30:00Z,30.4367,-88.0117,14.2,9.34,111.3,-9999.0,'1111122,1111122,1111122' 
DISL,ioos:station:DISL:MBLA:1,2008-05-01T07:00:00Z,30.4367,-88.0117,14.2,8.42,110.8,-9999.0,'1111122,1111122,1111122' 
DISL,ioos:station:DISL:MBLA:1,2008-05-01T07:30:00Z,30.4367,-88.0117,14.2,8.69,109.9,-9999.0,'1111122,1111122,1111122' 
DISL,ioos:station:DISL:MBLA:1,2008-05-01T08:00:00Z,30.4367,-88.0117,14.2,9.06,107.6,-9999.0,'1111122,1111122,1111122' 
DISL,ioos:station:DISL:MBLA:1,2008-05-01T08:30:00Z,30.4367,-88.0117,14.2,8.79,106.0,-9999.0,'1111122,1111122,1111122' 
DISL,ioos:station:DISL:MBLA:1,2008-05-01T09:00:00Z,30.4367,-88.0117,14.2,9.15,104.9,-9999.0,'1111122,1111122,1111122' 
DISL,ioos:station:DISL:MBLA:1,2008-05-01T09:30:00Z,30.4367,-88.0117,14.2,8.63,109.0,-9999.0,'1111122,1111122,1111122' 
DISL,ioos:station:DISL:MBLA:1,2008-05-01T10:00:00Z,30.4367,-88.0117,14.2,9.37,106.9,-9999.0,'1111122,1111122,1111122' 
DISL,ioos:station:DISL:MBLA:1,2008-05-01T10:30:00Z,30.4367,-88.0117,14.2,10.24,111.6,-9999.0,'1111122,1111122,1111122' 
DISL,ioos:station:DISL:MBLA:1,2008-05-01T11:00:00Z,30.4367,-88.0117,14.2,10.3,110.3,-9999.0,'1111122,1111122,1111122' 
DISL,ioos:station:DISL:MBLA:1,2008-05-01T11:30:00Z,30.4367,-88.0117,14.2,9.52,110.5,-9999.0,'1111122,1111122,1111122' 
DISL,ioos:station:DISL:MBLA:1,2008-05-01T12:00:00Z,30.4367,-88.0117,14.2,9.85,110.5,-9999.0,'1111122,1111122,1111122' 
DISL,ioos:station:DISL:MBLA:1,2008-05-01T12:30:00Z,30.4367,-88.0117,14.2,10.47,110.6,-9999.0,'1111122,1111122,1111122' 
DISL,ioos:station:DISL:MBLA:1,2008-05-01T13:00:00Z,30.4367,-88.0117,14.2,10.27,112.7,-9999.0,'1111122,1111122,1111122' 
DISL,ioos:station:DISL:MBLA:1,2008-05-01T13:30:00Z,30.4367,-88.0117,14.2,9.29,115.4,-9999.0,'1111122,1111122,1111122' 
DISL,ioos:station:DISL:MBLA:1,2008-05-01T14:00:00Z,30.4367,-88.0117,14.2,9.53,112.7,-9999.0,'1111122,1111122,1111122' 
DISL,ioos:station:DISL:MBLA:1,2008-05-01T14:30:00Z,30.4367,-88.0117,14.2,10.44,109.2,-9999.0,'1111122,1111122,1111122' 
DISL,ioos:station:DISL:MBLA:1,2008-05-01T15:00:00Z,30.4367,-88.0117,14.2,9.71,105.5,-9999.0,'1111122,1111122,1111122' 
DISL,ioos:station:DISL:MBLA:1,2008-05-01T15:30:00Z,30.4367,-88.0117,14.2,8.97,101.5,-9999.0,'1111122,1111122,1111122' 
DISL,ioos:station:DISL:MBLA:1,2008-05-01T16:00:00Z,30.4367,-88.0117,14.2,9.4,95.3,-9999.0,'1111122,1111122,1111122' 
DISL,ioos:station:DISL:MBLA:1,2008-05-01T16:30:00Z,30.4367,-88.0117,14.2,9.38,91.1,-9999.0,'1111122,1111122,1111122' 
DISL,ioos:station:DISL:MBLA:1,2008-05-01T17:00:00Z,30.4367,-88.0117,14.2,9.47,88.1,-9999.0,'1111122,1111122,1111122' 
DISL,ioos:station:DISL:MBLA:1,2008-05-01T17:30:00Z,30.4367,-88.0117,14.2,9.78,88.5,-9999.0,'1111122,1111122,1111122' 
DISL,ioos:station:DISL:MBLA:1,2008-05-01T18:00:00Z,30.4367,-88.0117,14.2,9.69,88.3,-9999.0,'1111122,1111122,1111122' 
DISL,ioos:station:DISL:MBLA:1,2008-05-01T18:30:00Z,30.4367,-88.0117,14.2,9.69,90.0,-9999.0,'1111122,1111122,1111122' 
DISL,ioos:station:DISL:MBLA:1,2008-05-01T19:00:00Z,30.4367,-88.0117,14.2,9.87,91.2,-9999.0,'1111122,1111122,1111122' 
DISL,ioos:station:DISL:MBLA:1,2008-05-01T19:30:00Z,30.4367,-88.0117,14.2,9.72,88.4,-9999.0,'1111122,1111122,1111122' 
DISL,ioos:station:DISL:MBLA:1,2008-05-01T20:00:00Z,30.4367,-88.0117,14.2,9.23,89.1,-9999.0,'1111122,1111122,1111122' 
DISL,ioos:station:DISL:MBLA:1,2008-05-01T20:30:00Z,30.4367,-88.0117,14.2,9.14,91.9,-9999.0,'1111122,1111122,1111122' 
DISL,ioos:station:DISL:MBLA:1,2008-05-01T21:00:00Z,30.4367,-88.0117,14.2,9.09,82.7,-9999.0,'1111122,1111122,1111122' 
DISL,ioos:station:DISL:MBLA:1,2008-05-01T21:30:00Z,30.4367,-88.0117,14.2,10.45,79.8,-9999.0,'1111122,1111122,1111122' 
DISL,ioos:station:DISL:MBLA:1,2008-05-01T22:00:00Z,30.4367,-88.0117,14.2,10.14,81.2,-9999.0,'1111122,1111122,1111122' 
DISL,ioos:station:DISL:MBLA:1,2008-05-01T22:30:00Z,30.4367,-88.0117,14.2,9.59,78.9,-9999.0,'1111122,1111122,1111122' 
DISL,ioos:station:DISL:MBLA:1,2008-05-01T23:00:00Z,30.4367,-88.0117,14.2,10.02,78.7,-9999.0,'1111122,1111122,1111122' 
DISL,ioos:station:DISL:MBLA:1,2008-05-01T23:30:00Z,30.4367,-88.0117,14.2,10.37,85.5,-9999.0,'1111122,1111122,1111122' 
DISL,ioos:station:DISL:MBLA:1,2008-05-02T00:00:00Z,30.4367,-88.0117,14.2,10.59,79.7,-9999.0,'1111122,1111122,1111122' 
DISL,ioos:station:DISL:MBLA:1,2008-05-02T00:30:00Z,30.4367,-88.0117,14.2,10.7,80.0,-9999.0,'1111122,1111122,1111122' 
DISL,ioos:station:DISL:MBLA:1,2008-05-02T01:00:00Z,30.4367,-88.0117,14.2,11.31,82.5,-9999.0,'1111122,1111122,1111122' 
DISL,ioos:station:DISL:MBLA:1,2008-05-02T01:30:00Z,30.4367,-88.0117,14.2,11.25,86.9,-9999.0,'1111122,1111122,1111122' 
DISL,ioos:station:DISL:MBLA:1,2008-05-02T02:00:00Z,30.4367,-88.0117,14.2,11.43,90.1,-9999.0,'1111122,1111122,1111122' 
DISL,ioos:station:DISL:MBLA:1,2008-05-02T02:30:00Z,30.4367,-88.0117,14.2,11.45,86.2,-9999.0,'1111122,1111122,1111122' 
DISL,ioos:station:DISL:MBLA:1,2008-05-02T03:00:00Z,30.4367,-88.0117,14.2,11.85,89.3,-9999.0,'1111122,1111122,1111122' 
DISL,ioos:station:DISL:MBLA:1,2008-05-02T03:30:00Z,30.4367,-88.0117,14.2,11.59,86.5,-9999.0,'1111122,1111122,1111122' 
DISL,ioos:station:DISL:MBLA:1,2008-05-02T04:00:00Z,30.4367,-88.0117,14.2,11.79,87.0,-9999.0,'1111122,1111122,1111122' 
DISL,ioos:station:DISL:MBLA:1,2008-05-02T04:30:00Z,30.4367,-88.0117,14.2,12.41,86.6,-9999.0,'1111122,1111122,1111122' 
DISL,ioos:station:DISL:MBLA:1,2008-05-02T05:00:00Z,30.4367,-88.0117,14.2,12.58,82.5,-9999.0,'1111122,1111122,1111122' 
DISL,ioos:station:DISL:MBLA:1,2008-05-02T05:30:00Z,30.4367,-88.0117,14.2,12.24,88.0,-9999.0,'1111122,1111122,1111122' 
DISL,ioos:station:DISL:MBLA:1,2008-05-02T06:00:00Z,30.4367,-88.0117,14.2,11.28,87.5,-9999.0,'1111122,1111122,1111122' 
DISL,ioos:station:DISL:MBLA:1,2008-05-02T06:30:00Z,30.4367,-88.0117,14.2,11.77,84.7,-9999.0,'1111122,1111122,1111122' 
DISL,ioos:station:DISL:MBLA:1,2008-05-02T07:00:00Z,30.4367,-88.0117,14.2,11.29,86.0,-9999.0,'1111122,1111122,1111122' 
DISL,ioos:station:DISL:MBLA:1,2008-05-02T07:30:00Z,30.4367,-88.0117,14.2,10.26,87.7,-9999.0,'1111122,1111122,1111122' 
DISL,ioos:station:DISL:MBLA:1,2008-05-02T08:00:00Z,30.4367,-88.0117,14.2,9.01,96.3,-9999.0,'1111122,1111122,1111122' 
DISL,ioos:station:DISL:MBLA:1,2008-05-02T08:30:00Z,30.4367,-88.0117,14.2,8.81,98.2,-9999.0,'1111122,1111122,1111122' 
DISL,ioos:station:DISL:MBLA:1,2008-05-02T09:00:00Z,30.4367,-88.0117,14.2,9.37,105.6,-9999.0,'1111122,1111122,1111122' 
DISL,ioos:station:DISL:MBLA:1,2008-05-02T09:30:00Z,30.4367,-88.0117,14.2,10.0,96.1,-9999.0,'1111122,1111122,1111122' 
DISL,ioos:station:DISL:MBLA:1,2008-05-02T10:00:00Z,30.4367,-88.0117,14.2,8.32,101.6,-9999.0,'1111122,1111122,1111122' 
DISL,ioos:station:DISL:MBLA:1,2008-05-02T10:30:00Z,30.4367,-88.0117,14.2,8.54,104.9,-9999.0,'1111122,1111122,1111122' 
DISL,ioos:station:DISL:MBLA:1,2008-05-02T11:00:00Z,30.4367,-88.0117,14.2,8.84,101.7,-9999.0,'1111122,1111122,1111122' 
DISL,ioos:station:DISL:MBLA:1,2008-05-02T11:30:00Z,30.4367,-88.0117,14.2,8.47,89.5,-9999.0,'1111122,1111122,1111122' 
DISL,ioos:station:DISL:MBLA:1,2008-05-02T12:00:00Z,30.4367,-88.0117,14.2,8.87,83.9,-9999.0,'1111122,1111122,1111122' 
DISL,ioos:station:DISL:MBLA:1,2008-05-02T12:30:00Z,30.4367,-88.0117,14.2,8.43,89.6,-9999.0,'1111122,1111122,1111122' 
DISL,ioos:station:DISL:MBLA:1,2008-05-02T13:00:00Z,30.4367,-88.0117,14.2,7.77,79.9,-9999.0,'1111122,1111122,1111122' 
DISL,ioos:station:DISL:MBLA:1,2008-05-02T13:30:00Z,30.4367,-88.0117,14.2,9.29,82.9,-9999.0,'1111122,1111122,1111122' 
DISL,ioos:station:DISL:MBLA:1,2008-05-02T14:00:00Z,30.4367,-88.0117,14.2,8.87,83.2,-9999.0,'1111122,1111122,1111122' 
DISL,ioos:station:DISL:MBLA:1,2008-05-02T14:30:00Z,30.4367,-88.0117,14.2,10.02,86.2,-9999.0,'1111122,1111122,1111122' 
DISL,ioos:station:DISL:MBLA:1,2008-05-02T15:00:00Z,30.4367,-88.0117,14.2,10.14,87.1,-9999.0,'1111122,1111122,1111122' 
DISL,ioos:station:DISL:MBLA:1,2008-05-02T15:30:00Z,30.4367,-88.0117,14.2,9.92,90.2,-9999.0,'1111122,1111122,1111122' 
DISL,ioos:station:DISL:MBLA:1,2008-05-02T16:00:00Z,30.4367,-88.0117,14.2,9.91,83.9,-9999.0,'1111122,1111122,1111122' 
DISL,ioos:station:DISL:MBLA:1,2008-05-02T16:30:00Z,30.4367,-88.0117,14.2,11.19,90.7,-9999.0,'1111122,1111122,1111122' 
DISL,ioos:station:DISL:MBLA:1,2008-05-02T17:00:00Z,30.4367,-88.0117,14.2,10.6,84.1,-9999.0,'1111122,1111122,1111122' 
DISL,ioos:station:DISL:MBLA:1,2008-05-02T17:30:00Z,30.4367,-88.0117,14.2,12.21,80.7,-9999.0,'1111122,1111122,1111122' 
DISL,ioos:station:DISL:MBLA:1,2008-05-02T18:00:00Z,30.4367,-88.0117,14.2,11.88,78.3,-9999.0,'1111122,1111122,1111122' 
DISL,ioos:station:DISL:MBLA:1,2008-05-02T18:30:00Z,30.4367,-88.0117,14.2,11.94,80.8,-9999.0,'1111122,1111122,1111122' 
DISL,ioos:station:DISL:MBLA:1,2008-05-02T19:00:00Z,30.4367,-88.0117,14.2,11.69,77.9,-9999.0,'1111122,1111122,1111122' 
DISL,ioos:station:DISL:MBLA:1,2008-05-02T19:30:00Z,30.4367,-88.0117,14.2,11.73,77.0,-9999.0,'1111122,1111122,1111122' 
DISL,ioos:station:DISL:MBLA:1,2008-05-02T20:00:00Z,30.4367,-88.0117,14.2,10.43,79.2,-9999.0,'1111122,1111122,1111122' 
DISL,ioos:station:DISL:MBLA:1,2008-05-02T20:30:00Z,30.4367,-88.0117,14.2,10.78,80.6,-9999.0,'1111122,1111122,1111122' 
DISL,ioos:station:DISL:MBLA:1,2008-05-02T21:00:00Z,30.4367,-88.0117,14.2,10.78,83.3,-9999.0,'1111122,1111122,1111122' 
DISL,ioos:station:DISL:MBLA:1,2008-05-02T21:30:00Z,30.4367,-88.0117,14.2,11.89,82.5,-9999.0,'1111122,1111122,1111122' 
DISL,ioos:station:DISL:MBLA:1,2008-05-02T22:00:00Z,30.4367,-88.0117,14.2,11.57,77.2,-9999.0,'1111122,1111122,1111122' 
DISL,ioos:station:DISL:MBLA:1,2008-05-02T22:30:00Z,30.4367,-88.0117,14.2,10.14,75.2,-9999.0,'1111122,1111122,1111122' 
DISL,ioos:station:DISL:MBLA:1,2008-05-02T23:00:00Z,30.4367,-88.0117,14.2,10.87,75.6,-9999.0,'1111122,1111122,1111122' 
DISL,ioos:station:DISL:MBLA:1,2008-05-02T23:30:00Z,30.4367,-88.0117,14.2,10.41,75.5,-9999.0,'1111122,1111122,1111122' 
DISL,ioos:station:DISL:MBLA:1,2008-05-03T00:00:00Z,30.4367,-88.0117,14.2,10.94,78.7,-9999.0,'1111122,1111122,1111122' 
DISL,ioos:station:DISL:MBLA:1,2008-05-03T00:30:00Z,30.4367,-88.0117,14.2,11.56,73.1,-9999.0,'1111122,1111122,1111122' 
DISL,ioos:station:DISL:MBLA:1,2008-05-03T01:00:00Z,30.4367,-88.0117,14.2,11.35,74.3,-9999.0,'1111122,1111122,1111122' 
DISL,ioos:station:DISL:MBLA:1,2008-05-03T01:30:00Z,30.4367,-88.0117,14.2,12.08,76.2,-9999.0,'1111122,1111122,1111122' 
DISL,ioos:station:DISL:MBLA:1,2008-05-03T02:00:00Z,30.4367,-88.0117,14.2,12.98,83.0,-9999.0,'1111122,1111122,1111122' 
DISL,ioos:station:DISL:MBLA:1,2008-05-03T02:30:00Z,30.4367,-88.0117,14.2,13.7,85.7,-9999.0,'1111122,1111122,1111122' 
DISL,ioos:station:DISL:MBLA:1,2008-05-03T03:00:00Z,30.4367,-88.0117,14.2,13.24,91.0,-9999.0,'1111122,1111122,1111122' 
DISL,ioos:station:DISL:MBLA:1,2008-05-03T03:30:00Z,30.4367,-88.0117,14.2,12.91,95.1,-9999.0,'1111122,1111122,1111122' 
DISL,ioos:station:DISL:MBLA:1,2008-05-03T04:00:00Z,30.4367,-88.0117,14.2,13.66,99.4,-9999.0,'1111122,1111122,1111122' 
DISL,ioos:station:DISL:MBLA:1,2008-05-03T04:30:00Z,30.4367,-88.0117,14.2,13.06,102.2,-9999.0,'1111122,1111122,1111122' 
DISL,ioos:station:DISL:MBLA:1,2008-05-03T05:00:00Z,30.4367,-88.0117,14.2,13.03,104.0,-9999.0,'1111122,1111122,1111122' 
DISL,ioos:station:DISL:MBLA:1,2008-05-03T05:30:00Z,30.4367,-88.0117,14.2,13.2,103.1,-9999.0,'1111122,1111122,1111122' 
DISL,ioos:station:DISL:MBLA:1,2008-05-03T06:00:00Z,30.4367,-88.0117,14.2,13.39,102.6,-9999.0,'1111122,1111122,1111122' 
DISL,ioos:station:DISL:MBLA:1,2008-05-03T06:30:00Z,30.4367,-88.0117,14.2,12.97,102.3,-9999.0,'1111122,1111122,1111122' 
DISL,ioos:station:DISL:MBLA:1,2008-05-03T07:00:00Z,30.4367,-88.0117,14.2,12.76,109.4,-9999.0,'1111122,1111122,1111122' 
DISL,ioos:station:DISL:MBLA:1,2008-05-03T07:30:00Z,30.4367,-88.0117,14.2,12.27,108.2,-9999.0,'1111122,1111122,1111122' 
DISL,ioos:station:DISL:MBLA:1,2008-05-03T08:00:00Z,30.4367,-88.0117,14.2,12.32,110.1,-9999.0,'1111122,1111122,1111122' 
DISL,ioos:station:DISL:MBLA:1,2008-05-03T08:30:00Z,30.4367,-88.0117,14.2,11.33,110.0,-9999.0,'1111122,1111122,1111122' 
DISL,ioos:station:DISL:MBLA:1,2008-05-03T09:00:00Z,30.4367,-88.0117,14.2,9.81,112.0,-9999.0,'1111122,1111122,1111122' 
DISL,ioos:station:DISL:MBLA:1,2008-05-03T09:30:00Z,30.4367,-88.0117,14.2,8.49,111.8,-9999.0,'1111122,1111122,1111122' 
DISL,ioos:station:DISL:MBLA:1,2008-05-03T10:00:00Z,30.4367,-88.0117,14.2,7.02,107.0,-9999.0,'1111122,1111122,1111122' 
DISL,ioos:station:DISL:MBLA:1,2008-05-03T10:30:00Z,30.4367,-88.0117,14.2,6.54,105.9,-9999.0,'1111122,1111122,1111122' 
DISL,ioos:station:DISL:MBLA:1,2008-05-03T11:00:00Z,30.4367,-88.0117,14.2,6.69,102.2,-9999.0,'1111122,1111122,1111122' 
DISL,ioos:station:DISL:MBLA:1,2008-05-03T11:30:00Z,30.4367,-88.0117,14.2,6.78,99.5,-9999.0,'1111122,1111122,1111122' 
DISL,ioos:station:DISL:MBLA:1,2008-05-03T12:00:00Z,30.4367,-88.0117,14.2,7.06,102.5,-9999.0,'1111122,1111122,1111122' 
DISL,ioos:station:DISL:MBLA:1,2008-05-03T12:30:00Z,30.4367,-88.0117,14.2,7.25,91.1,-9999.0,'1111122,1111122,1111122' 
DISL,ioos:station:DISL:MBLA:1,2008-05-03T13:00:00Z,30.4367,-88.0117,14.2,6.48,92.4,-9999.0,'1111122,1111122,1111122' 
DISL,ioos:station:DISL:MBLA:1,2008-05-03T13:30:00Z,30.4367,-88.0117,14.2,6.6,95.3,-9999.0,'1111122,1111122,1111122' 
DISL,ioos:station:DISL:MBLA:1,2008-05-03T14:00:00Z,30.4367,-88.0117,14.2,6.71,89.5,-9999.0,'1111122,1111122,1111122' 
DISL,ioos:station:DISL:MBLA:1,2008-05-03T14:30:00Z,30.4367,-88.0117,14.2,7.23,83.7,-9999.0,'1111122,1111122,1111122' 
DISL,ioos:station:DISL:MBLA:1,2008-05-03T15:00:00Z,30.4367,-88.0117,14.2,6.62,90.4,-9999.0,'1111122,1111122,1111122' 
DISL,ioos:station:DISL:MBLA:1,2008-05-03T15:30:00Z,30.4367,-88.0117,14.2,7.99,235.1,-9999.0,'1111122,1111122,1111122' 
DISL,ioos:station:DISL:MBLA:1,2008-05-03T16:00:00Z,30.4367,-88.0117,14.2,3.32,51.45,-9999.0,'1111122,1111122,1111122' 
DISL,ioos:station:DISL:MBLA:1,2008-05-03T16:30:00Z,30.4367,-88.0117,14.2,5.51,69.24,-9999.0,'1111122,1111122,1111122' 
DISL,ioos:station:DISL:MBLA:1,2008-05-03T17:00:00Z,30.4367,-88.0117,14.2,8.77,65.5,-9999.0,'1111122,1111122,1111122' 
DISL,ioos:station:DISL:MBLA:1,2008-05-03T17:30:00Z,30.4367,-88.0117,14.2,7.7,70.9,-9999.0,'1111122,1111122,1111122' 
DISL,ioos:station:DISL:MBLA:1,2008-05-03T18:00:00Z,30.4367,-88.0117,14.2,6.79,78.2,-9999.0,'1111122,1111122,1111122' 
DISL,ioos:station:DISL:MBLA:1,2008-05-03T18:30:00Z,30.4367,-88.0117,14.2,8.32,83.4,-9999.0,'1111122,1111122,1111122' 
DISL,ioos:station:DISL:MBLA:1,2008-05-03T19:00:00Z,30.4367,-88.0117,14.2,6.98,91.9,-9999.0,'1111122,1111122,1111122' 
DISL,ioos:station:DISL:MBLA:1,2008-05-03T19:30:00Z,30.4367,-88.0117,14.2,6.14,92.3,-9999.0,'1111122,1111122,1111122' 
DISL,ioos:station:DISL:MBLA:1,2008-05-03T20:00:00Z,30.4367,-88.0117,14.2,2.44,120.4,-9999.0,'1111122,1111122,1111122' 
DISL,ioos:station:DISL:MBLA:1,2008-05-03T20:30:00Z,30.4367,-88.0117,14.2,1.51,139.2,-9999.0,'1111122,1111122,1111122' 
DISL,ioos:station:DISL:MBLA:1,2008-05-03T21:00:00Z,30.4367,-88.0117,14.2,1.54,172.2,-9999.0,'1111122,1111122,1111122' 
DISL,ioos:station:DISL:MBLA:1,2008-05-03T21:30:00Z,30.4367,-88.0117,14.2,2.52,147.2,-9999.0,'1111122,1111122,1111122' 
DISL,ioos:station:DISL:MBLA:1,2008-05-03T22:00:00Z,30.4367,-88.0117,14.2,3.31,145.6,-9999.0,'1111122,1111122,1111122' 
DISL,ioos:station:DISL:MBLA:1,2008-05-03T22:30:00Z,30.4367,-88.0117,14.2,3.65,140.9,-9999.0,'1111122,1111122,1111122' 
DISL,ioos:station:DISL:MBLA:1,2008-05-03T23:00:00Z,30.4367,-88.0117,14.2,5.45,151.3,-9999.0,'1111122,1111122,1111122' 
DISL,ioos:station:DISL:MBLA:1,2008-05-03T23:30:00Z,30.4367,-88.0117,14.2,5.39,155.3,-9999.0,'1111122,1111122,1111122' 
DISL,ioos:station:DISL:MBLA:1,2008-05-04T00:00:00Z,30.4367,-88.0117,14.2,3.93,170.8,-9999.0,'1111122,1111122,1111122' 
DISL,ioos:station:DISL:MBLA:1,2008-05-04T00:30:00Z,30.4367,-88.0117,14.2,3.52,182.3,-9999.0,'1111122,1111122,1111122' 
DISL,ioos:station:DISL:MBLA:1,2008-05-04T01:00:00Z,30.4367,-88.0117,14.2,3.14,179.0,-9999.0,'1111122,1111122,1111122' 
DISL,ioos:station:DISL:MBLA:1,2008-05-04T01:30:00Z,30.4367,-88.0117,14.2,3.81,173.4,-9999.0,'1111122,1111122,1111122' 
DISL,ioos:station:DISL:MBLA:1,2008-05-04T02:00:00Z,30.4367,-88.0117,14.2,4.21,169.4,-9999.0,'1111122,1111122,1111122' 
DISL,ioos:station:DISL:MBLA:1,2008-05-04T02:30:00Z,30.4367,-88.0117,14.2,4.68,174.1,-9999.0,'1111122,1111122,1111122' 
DISL,ioos:station:DISL:MBLA:1,2008-05-04T03:00:00Z,30.4367,-88.0117,14.2,5.1,177.0,-9999.0,'1111122,1111122,1111122' 
DISL,ioos:station:DISL:MBLA:1,2008-05-04T03:30:00Z,30.4367,-88.0117,14.2,4.92,180.9,-9999.0,'1111122,1111122,1111122' 
DISL,ioos:station:DISL:MBLA:1,2008-05-04T04:00:00Z,30.4367,-88.0117,14.2,4.83,178.6,-9999.0,'1111122,1111122,1111122' 
DISL,ioos:station:DISL:MBLA:1,2008-05-04T04:30:00Z,30.4367,-88.0117,14.2,5.16,175.9,-9999.0,'1111122,1111122,1111122' 
DISL,ioos:station:DISL:MBLA:1,2008-05-04T05:00:00Z,30.4367,-88.0117,14.2,5.51,174.4,-9999.0,'1111122,1111122,1111122' 
DISL,ioos:station:DISL:MBLA:1,2008-05-04T05:30:00Z,30.4367,-88.0117,14.2,5.09,167.6,-9999.0,'1111122,1111122,1111122' 
DISL,ioos:station:DISL:MBLA:1,2008-05-04T06:00:00Z,30.4367,-88.0117,14.2,4.39,165.2,-9999.0,'1111122,1111122,1111122' 
DISL,ioos:station:DISL:MBLA:1,2008-05-04T06:30:00Z,30.4367,-88.0117,14.2,4.37,166.1,-9999.0,'1111122,1111122,1111122' 
DISL,ioos:station:DISL:MBLA:1,2008-05-04T07:00:00Z,30.4367,-88.0117,14.2,4.09,178.2,-9999.0,'1111122,1111122,1111122' 
DISL,ioos:station:DISL:MBLA:1,2008-05-04T07:30:00Z,30.4367,-88.0117,14.2,3.66,238.6,-9999.0,'1111122,1111122,1111122' 
DISL,ioos:station:DISL:MBLA:1,2008-05-04T08:00:00Z,30.4367,-88.0117,14.2,2.13,231.5,-9999.0,'1111122,1111122,1111122' 
DISL,ioos:station:DISL:MBLA:1,2008-05-04T08:30:00Z,30.4367,-88.0117,14.2,3.69,233.0,-9999.0,'1111122,1111122,1111122' 
DISL,ioos:station:DISL:MBLA:1,2008-05-04T09:00:00Z,30.4367,-88.0117,14.2,6.28,286.0,-9999.0,'1111122,1111122,1111122' 
DISL,ioos:station:DISL:MBLA:1,2008-05-04T09:30:00Z,30.4367,-88.0117,14.2,7.44,305.4,-9999.0,'1111122,1111122,1111122' 
DISL,ioos:station:DISL:MBLA:1,2008-05-04T10:00:00Z,30.4367,-88.0117,14.2,7.88,312.7,-9999.0,'1111122,1111122,1111122' 
DISL,ioos:station:DISL:MBLA:1,2008-05-04T10:30:00Z,30.4367,-88.0117,14.2,9.14,330.5,-9999.0,'1111122,1111122,1111122' 
DISL,ioos:station:DISL:MBLA:1,2008-05-04T11:00:00Z,30.4367,-88.0117,14.2,9.5,321.1,-9999.0,'1111122,1111122,1111122' 
DISL,ioos:station:DISL:MBLA:1,2008-05-04T11:30:00Z,30.4367,-88.0117,14.2,9.01,326.2,-9999.0,'1111122,1111122,1111122' 
DISL,ioos:station:DISL:MBLA:1,2008-05-04T12:00:00Z,30.4367,-88.0117,14.2,9.37,328.4,-9999.0,'1111122,1111122,1111122' 
DISL,ioos:station:DISL:MBLA:1,2008-05-04T12:30:00Z,30.4367,-88.0117,14.2,8.82,322.7,-9999.0,'1111122,1111122,1111122' 
DISL,ioos:station:DISL:MBLA:1,2008-05-04T13:00:00Z,30.4367,-88.0117,14.2,8.58,323.5,-9999.0,'1111122,1111122,1111122' 
DISL,ioos:station:DISL:MBLA:1,2008-05-04T13:30:00Z,30.4367,-88.0117,14.2,7.54,316.7,-9999.0,'1111122,1111122,1111122' 
DISL,ioos:station:DISL:MBLA:1,2008-05-04T14:00:00Z,30.4367,-88.0117,14.2,6.34,314.2,-9999.0,'1111122,1111122,1111122' 
DISL,ioos:station:DISL:MBLA:1,2008-05-04T14:30:00Z,30.4367,-88.0117,14.2,4.96,305.6,-9999.0,'1111122,1111122,1111122' 
DISL,ioos:station:DISL:MBLA:1,2008-05-04T15:00:00Z,30.4367,-88.0117,14.2,4.16,308.1,-9999.0,'1111122,1111122,1111122' 
DISL,ioos:station:DISL:MBLA:1,2008-05-04T15:30:00Z,30.4367,-88.0117,14.2,3.17,294.8,-9999.0,'1111122,1111122,1111122' 
DISL,ioos:station:DISL:MBLA:1,2008-05-04T16:00:00Z,30.4367,-88.0117,14.2,2.27,276.9,-9999.0,'1111122,1111122,1111122' 
DISL,ioos:station:DISL:MBLA:1,2008-05-04T16:30:00Z,30.4367,-88.0117,14.2,1.75,277.3,-9999.0,'1111122,1111122,1111122' 
DISL,ioos:station:DISL:MBLA:1,2008-05-04T17:00:00Z,30.4367,-88.0117,14.2,1.36,271.3,-9999.0,'1111122,1111122,1111122' 
DISL,ioos:station:DISL:MBLA:1,2008-05-04T17:30:00Z,30.4367,-88.0117,14.2,0.28,211.7,-9999.0,'1111122,1111122,1111122' 
DISL,ioos:station:DISL:MBLA:1,2008-05-04T18:00:00Z,30.4367,-88.0117,14.2,0.36,4.363,-9999.0,'1111122,1111122,1111122' 
DISL,ioos:station:DISL:MBLA:1,2008-05-04T18:30:00Z,30.4367,-88.0117,14.2,1.97,62.04,-9999.0,'1111122,1111122,1111122' 
DISL,ioos:station:DISL:MBLA:1,2008-05-04T19:00:00Z,30.4367,-88.0117,14.2,3.4,126.7,-9999.0,'1111122,1111122,1111122' 
DISL,ioos:station:DISL:MBLA:1,2008-05-04T19:30:00Z,30.4367,-88.0117,14.2,3.91,136.8,-9999.0,'1111122,1111122,1111122' 
DISL,ioos:station:DISL:MBLA:1,2008-05-04T20:00:00Z,30.4367,-88.0117,14.2,5.94,154.0,-9999.0,'1111122,1111122,1111122' 
DISL,ioos:station:DISL:MBLA:1,2008-05-04T20:30:00Z,30.4367,-88.0117,14.2,6.72,154.7,-9999.0,'1111122,1111122,1111122' 
DISL,ioos:station:DISL:MBLA:1,2008-05-04T21:00:00Z,30.4367,-88.0117,14.2,7.24,159.5,-9999.0,'1111122,1111122,1111122' 
DISL,ioos:station:DISL:MBLA:1,2008-05-04T21:30:00Z,30.4367,-88.0117,14.2,6.67,158.7,-9999.0,'1111122,1111122,1111122' 
DISL,ioos:station:DISL:MBLA:1,2008-05-04T22:00:00Z,30.4367,-88.0117,14.2,7.48,163.7,-9999.0,'1111122,1111122,1111122' 
DISL,ioos:station:DISL:MBLA:1,2008-05-04T22:30:00Z,30.4367,-88.0117,14.2,8.08,167.9,-9999.0,'1111122,1111122,1111122' 
DISL,ioos:station:DISL:MBLA:1,2008-05-04T23:00:00Z,30.4367,-88.0117,14.2,7.77,166.0,-9999.0,'1111122,1111122,1111122' 
DISL,ioos:station:DISL:MBLA:1,2008-05-04T23:30:00Z,30.4367,-88.0117,14.2,8.32,156.9,-9999.0,'1111122,1111122,1111122' 
DISL,ioos:station:DISL:MBLA:1,2008-05-05T00:00:00Z,30.4367,-88.0117,14.2,6.86,165.1,-9999.0,'1111122,1111122,1111122' 
DISL,ioos:station:DISL:MBLA:1,2008-05-05T00:30:00Z,30.4367,-88.0117,14.2,6.54,170.5,-9999.0,'1111122,1111122,1111122' 
DISL,ioos:station:DISL:MBLA:1,2008-05-05T01:00:00Z,30.4367,-88.0117,14.2,6.04,176.0,-9999.0,'1111122,1111122,1111122' 
DISL,ioos:station:DISL:MBLA:1,2008-05-05T01:30:00Z,30.4367,-88.0117,14.2,6.59,201.4,-9999.0,'1111122,1111122,1111122' 
DISL,ioos:station:DISL:MBLA:1,2008-05-05T02:00:00Z,30.4367,-88.0117,14.2,6.77,212.6,-9999.0,'1111122,1111122,1111122' 
DISL,ioos:station:DISL:MBLA:1,2008-05-05T02:30:00Z,30.4367,-88.0117,14.2,6.92,213.9,-9999.0,'1111122,1111122,1111122' 
DISL,ioos:station:DISL:MBLA:1,2008-05-05T03:00:00Z,30.4367,-88.0117,14.2,6.53,231.5,-9999.0,'1111122,1111122,1111122' 
DISL,ioos:station:DISL:MBLA:1,2008-05-05T03:30:00Z,30.4367,-88.0117,14.2,5.93,243.8,-9999.0,'1111122,1111122,1111122' 
DISL,ioos:station:DISL:MBLA:1,2008-05-05T04:00:00Z,30.4367,-88.0117,14.2,5.29,260.6,-9999.0,'1111122,1111122,1111122' 